Date,TemperatureHighF,TemperatureAvgF,TemperatureLowF,DewpointHighF,DewpointAvgF,DewpointLowF,HumidityHigh,HumidityAvg,HumidityLow,PressureMaxIn,PressureMinIn,WindSpeedMaxMPH,WindSpeedAvgMPH,GustSpeedMaxMPH,PrecipitationSumIn
2012-12-1,45.3,42.1,39.4,43.0,40.5,38.8,99,94,86,30.15,30.06,7,3,10,0.06
2012-12-2,51.1,45.5,40.6,50.7,44.9,39.2,99,98,92,30.09,29.75,11,5,19,0.31
2012-12-3,48.6,42.1,38.7,48.2,40.4,37.2,99,94,88,29.81,29.73,13,6,25,0.07
2012-12-4,46.6,40.8,37.8,42.4,38.9,35.4,96,93,84,29.82,29.63,12,7,24,0.11
2012-12-5,45.0,38.7,35.1,39.6,35.9,33.3,96,90,78,30.06,29.83,9,3,20,0.00
2012-12-6,46.8,43.4,39.0,45.7,41.6,37.2,97,93,85,30.02,29.59,17,10,33,0.69
2012-12-7,48.2,43.0,38.1,42.1,39.2,34.7,93,87,77,30.29,29.68,13,5,23,0.03
2012-12-8,48.7,44.6,37.9,47.3,42.9,35.1,97,94,87,30.37,30.29,10,5,17,0.00
2012-12-9,49.3,45.6,37.9,48.0,44.5,36.9,97,96,93,30.31,30.21,9,4,16,0.02
2012-12-10,40.1,35.7,31.5,37.8,34.3,30.6,98,95,89,30.40,30.28,4,2,13,0.01
2012-12-11,39.2,36.6,32.7,36.7,34.5,30.9,95,92,89,30.39,30.13,7,3,14,0.01
2012-12-12,43.9,41.1,37.0,43.2,39.7,34.7,98,95,91,30.12,29.68,6,3,13,0.11
2012-12-13,43.9,40.9,36.3,42.8,38.7,34.3,96,92,83,29.67,29.07,10,6,23,0.00
2012-12-14,47.7,46.1,43.5,46.8,45.2,42.3,98,97,94,29.07,28.72,12,6,23,0.54
2012-12-15,50.2,47.5,46.2,47.3,45.7,44.6,97,93,87,29.22,28.85,11,7,20,0.16
2012-12-16,47.7,45.6,42.8,46.4,43.9,41.5,96,94,91,29.29,29.14,13,7,24,0.24
2012-12-17,47.7,45.8,43.7,46.4,44.3,42.6,97,94,88,29.84,29.29,16,7,33,0.20
2012-12-18,47.1,42.4,37.2,44.8,41.5,36.1,99,97,90,29.98,29.70,12,4,25,0.01
2012-12-19,49.8,47.8,44.4,49.1,46.7,43.7,98,96,89,29.70,29.52,16,5,32,0.22
2012-12-20,45.7,43.3,41.2,45.5,42.9,40.6,100,99,97,29.60,29.48,3,1,8,0.06
2012-12-21,46.9,44.4,41.2,46.4,44.2,41.0,100,99,98,29.78,29.48,11,4,21,0.16
2012-12-22,54.9,52.6,47.1,54.9,52.2,46.6,100,99,86,29.47,29.05,19,9,37,0.87
2012-12-23,52.2,47.4,43.5,48.0,45.2,42.3,96,92,85,29.52,29.03,33,11,57,0.06
2012-12-24,49.6,45.8,43.5,46.8,44.2,41.7,97,94,88,29.47,29.14,8,5,18,0.12
2012-12-25,47.7,42.9,40.6,45.1,41.8,39.6,98,96,89,29.57,29.12,12,5,22,0.14
2012-12-26,48.2,45.0,42.6,46.4,42.9,40.6,98,93,85,29.60,29.30,21,10,47,0.42
2012-12-27,46.8,44.2,41.2,44.8,42.5,40.3,98,94,84,29.87,29.37,9,5,21,0.66
2012-12-28,55.2,52.8,45.5,52.3,50.2,45.0,99,91,79,29.74,29.22,21,13,45,0.07
2012-12-29,51.3,43.5,37.6,46.0,40.2,35.4,96,88,71,29.45,29.21,21,10,36,0.35
2012-12-30,52.9,46.2,37.2,50.0,44.5,35.4,98,94,89,29.64,29.34,22,14,41,0.69
2012-12-31,52.2,45.3,39.4,50.7,43.6,37.4,97,94,86,29.58,29.23,20,9,36,0.43